This demonstration page uses our WeatherBlox Daily Observations layout. Learn more.

Left ArrowRight Arrow

41.12389, -100.76542

Hourly Observations for September 10, 2016

Temp ( °F °C ) Dew Point ( °F °C ) Humidity (%) Winds ( mph kmh ) Pressure ( in mb ) Visibility ( mi km ) Precip ( " mm )
12:53 am 00:53 Clear 45 7.2 41 5 86 86 NW 6 9 30.24 1024 10 16 0.00 0.00
1:53 am 01:53 Clear 43 6.1 40 4.4 89 89 NW 5 7 30.25 1025 10 16 0.00 0.00
2:53 am 02:53 Clear 43 6.1 39 3.9 86 86 NW 3 6 30.26 1025 10 16 0.00 0.00
3:53 am 03:53 Clear 41 5 39 3.9 93 93 NW 6 9 30.27 1025 10 16 0.00 0.00
4:53 am 04:53 Clear 41 5 39 3.9 93 93 NW 7 11 30.29 1026 10 16 0.00 0.00
5:53 am 05:53 Clear 40 4.4 38 3.3 93 93 NW 6 9 30.30 1026 10 16 0.00 0.00
6:53 am 06:53 Clear 40 4.4 38 3.3 93 93 NW 6 9 30.31 1027 10 16 0.00 0.00
7:53 am 07:53 Sunny 41 5 39 3.9 93 93 NW 6 9 30.34 1027 10 16 0.00 0.00
8:53 am 08:53 Sunny 49 9.4 44 6.7 83 83 NW 7 11 30.34 1027 10 16 0.00 0.00
9:53 am 09:53 Sunny 55 12.8 47 8.3 74 74 W 6 9 30.34 1027 10 16 0.00 0.00
10:53 am 10:53 Sunny 62 16.7 46 7.8 56 56 W 8 13 30.32 1027 10 16 0.00 0.00
11:53 am 11:53 Sunny 67 19.4 43 6.1 42 42 VRB 7 11 30.29 1026 10 16 0.00 0.00
12:53 pm 12:53 Sunny 70 21.1 43 6.1 38 38 WSW 8 13 30.26 1025 10 16 0.00 0.00
1:53 pm 13:53 Sunny 73 22.8 41 5 32 32 WSW 8 13 30.23 1024 10 16 0.00 0.00
2:53 pm 14:53 Sunny 75 23.9 39 3.9 27 27 WSW 8 13 30.20 1023 10 16 0.00 0.00
3:53 pm 15:53 Sunny 77 25 38 3.3 24 24 SW 9 15 30.17 1022 10 16 0.00 0.00
4:53 pm 16:53 Sunny 77 25 38 3.3 24 24 SW 7 11 30.14 1021 10 16 0.00 0.00
5:53 pm 17:53 Sunny 77 25 38 3.3 24 24 WSW 8 13 30.12 1020 10 16 0.00 0.00
6:53 pm 18:53 Sunny 76 24.4 39 3.9 26 26 S 5 7 30.09 1019 10 16 0.00 0.00
7:53 pm 19:53 Sunny 66 18.9 46 7.8 49 49 SE 5 7 30.09 1019 10 16 0.00 0.00
8:53 pm 20:53 Clear 57 13.9 43 6.1 60 60 SE 7 11 30.10 1019 10 16 0.00 0.00
9:53 pm 21:53 Clear 56 13.3 42 5.6 60 60 SE 8 13 30.11 1020 10 16 0.00 0.00
10:53 pm 22:53 Clear 59 15 41 5 51 51 SE 10 17 30.08 1019 10 16 0.00 0.00
11:53 pm 23:53 Clear 55 12.8 42 5.6 62 62 ESE 8 13 30.07 1018 10 16 0.00 0.00

Powered by AerisWeather